• In Uzbekistan
  • List of Countries
  • For 7 days
  • Water Temperature
  • Satellite Maps
  • Weather Map
  • Weather Widgets
  • user-avatar
    Login

    Hourly Weather Larne

    Today, 22 June, Friday

    Time Temperature Precipitation Wind Pressure Humidity
    00:00 +7°C° 0 mm 5 mps 771 mmHg 92%
    01:00 +7°C° 0 mm 5 mps 771 mmHg 93%
    02:00 +7°C° 0 mm 5 mps 771 mmHg 93%
    03:00 +6°C° 0 mm 5 mps 771 mmHg 94%
    04:00 +7°C° 0 mm 5 mps 771 mmHg 92%
    05:00 +8°C° 0 mm 4 mps 771 mmHg 90%
    06:00 +8°C° 0 mm 4 mps 771 mmHg 89%
    07:00 +10°C° 0 mm 5 mps 771 mmHg 84%
    08:00 +12°C° 0 mm 5 mps 771 mmHg 79%
    09:00 +13°C° 0 mm 5 mps 771 mmHg 74%
    10:00 +14°C° 0 mm 5 mps 771 mmHg 71%
    11:00 +14°C° 0 mm 5 mps 771 mmHg 68%
    12:00 +15°C° 0 mm 5 mps 771 mmHg 65%
    13:00 +15°C° 0 mm 5 mps 771 mmHg 65%
    14:00 +15°C° 0 mm 5 mps 771 mmHg 65%
    15:00 +17°C° 0 mm 4 mps 771 mmHg 65%
    16:00 +15°C° 0 mm 4 mps 770 mmHg 68%
    17:00 +15°C° 0 mm 5 mps 770 mmHg 71%
    18:00 +14°C° 0 mm 5 mps 770 mmHg 74%
    19:00 +13°C° 0 mm 4 mps 770 mmHg 80%
    20:00 +11°C° 0 mm 4 mps 770 mmHg 86%
    21:00 +10°C° 0 mm 3 mps 770 mmHg 92%
    22:00 +9°C° 0 mm 3 mps 770 mmHg 93%
    23:00 +9°C° 0 mm 3 mps 770 mmHg 94%

    Tomorrow, 23 June, Saturday

    Time Temperature Precipitation Wind Pressure Humidity
    00:00 +8°C° 0 mm 3 mps 770 mmHg 94%
    01:00 +8°C° 0 mm 3 mps 770 mmHg 95%
    02:00 +8°C° 0 mm 3 mps 770 mmHg 95%
    03:00 +8°C° 0 mm 2 mps 769 mmHg 95%
    04:00 +8°C° 0 mm 2 mps 769 mmHg 94%
    05:00 +9°C° 0 mm 2 mps 769 mmHg 92%
    06:00 +10°C° 0 mm 2 mps 769 mmHg 90%
    07:00 +12°C° 0 mm 2 mps 769 mmHg 84%
    08:00 +12°C° 0 mm 3 mps 769 mmHg 78%
    09:00 +14°C° 0 mm 3 mps 769 mmHg 72%
    10:00 +16°C° 0 mm 3 mps 769 mmHg 69%
    11:00 +17°C° 0 mm 2 mps 769 mmHg 66%
    12:00 +17°C° 0 mm 2 mps 768 mmHg 63%
    13:00 +18°C° 0 mm 2 mps 768 mmHg 64%
    14:00 +18°C° 0 mm 2 mps 768 mmHg 64%
    15:00 +18°C° 0 mm 2 mps 768 mmHg 64%
    16:00 +18°C° 0 mm 2 mps 767 mmHg 67%
    17:00 +17°C° 0 mm 3 mps 767 mmHg 71%
    18:00 +16°C° 0 mm 3 mps 767 mmHg 74%
    19:00 +15°C° 0 mm 2 mps 767 mmHg 78%
    20:00 +13°C° 0 mm 2 mps 767 mmHg 83%
    21:00 +11°C° 0 mm 1 mps 767 mmHg 87%
    22:00 +11°C° 0 mm 1 mps 767 mmHg 87%
    23:00 +11°C° 0 mm 1 mps 767 mmHg 87%

    Day after tomorrow, 24 June, Sunday

    Time Temperature Precipitation Wind Pressure Humidity
    00:00 +10°C° 0 mm 1 mps 767 mmHg 88%
    01:00 +10°C° 0 mm 1 mps 767 mmHg 88%
    02:00 +10°C° 0 mm 1 mps 767 mmHg 88%
    03:00 +10°C° 0 mm 1 mps 767 mmHg 88%
    04:00 +11°C° 0 mm 1 mps 766 mmHg 87%
    05:00 +12°C° 0 mm 1 mps 766 mmHg 85%
    06:00 +13°C° 0 mm 1 mps 766 mmHg 84%
    07:00 +14°C° 0 mm 1 mps 766 mmHg 80%
    08:00 +16°C° 0 mm 1 mps 766 mmHg 76%
    09:00 +19°C° 0 mm 1 mps 766 mmHg 73%
    10:00 +19°C° 0 mm 2 mps 766 mmHg 70%
    11:00 +19°C° 0 mm 2 mps 766 mmHg 67%
    12:00 +20°C° 0 mm 2 mps 766 mmHg 65%
    13:00 +21°C° 0 mm 2 mps 766 mmHg 65%
    14:00 +21°C° 0 mm 2 mps 766 mmHg 65%
    15:00 +23°C° 0 mm 2 mps 766 mmHg 66%
    16:00 +21°C° 0 mm 3 mps 766 mmHg 69%
    17:00 +21°C° 0 mm 3 mps 765 mmHg 72%
    18:00 +20°C° 0 mm 3 mps 765 mmHg 75%
    19:00 +19°C° 0 mm 3 mps 765 mmHg 79%
    20:00 +17°C° 0 mm 3 mps 765 mmHg 82%
    21:00 +15°C° 0 mm 2 mps 765 mmHg 86%
    22:00 +15°C° 0 mm 2 mps 765 mmHg 84%
    23:00 +14°C° 0 mm 2 mps 765 mmHg 82%

    25 June, Monday

    Time Temperature Precipitation Wind Pressure Humidity
    00:00 +13°C° 0 mm 2 mps 765 mmHg 80%
    01:00 +13°C° 0 mm 2 mps 765 mmHg 80%
    02:00 +13°C° 0 mm 2 mps 765 mmHg 79%
    03:00 +13°C° 0 mm 2 mps 765 mmHg 79%
    04:00 +13°C° 0 mm 2 mps 765 mmHg 80%
    05:00 +14°C° 0 mm 1 mps 765 mmHg 81%
    06:00 +15°C° 0 mm 1 mps 765 mmHg 82%
    07:00 +18°C° 0 mm 1 mps 766 mmHg 80%
    08:00 +19°C° 0 mm 1 mps 766 mmHg 77%
    09:00 +21°C° 0 mm 1 mps 766 mmHg 74%
    10:00 +22°C° 0 mm 1 mps 766 mmHg 72%
    11:00 +23°C° 0 mm 1 mps 766 mmHg 70%
    12:00 +23°C° 0 mm 1 mps 766 mmHg 68%
    13:00 +24°C° 0 mm 2 mps 766 mmHg 68%
    14:00 +24°C° 0 mm 2 mps 766 mmHg 68%
    15:00 +24°C° 0 mm 2 mps 766 mmHg 68%
    16:00 +23°C° 0 mm 2 mps 766 mmHg 70%
    17:00 +23°C° 0 mm 2 mps 766 mmHg 72%
    18:00 +21°C° 0 mm 2 mps 766 mmHg 74%
    19:00 +21°C° 0 mm 1 mps 766 mmHg 77%
    20:00 +19°C° 0 mm 1 mps 766 mmHg 79%
    21:00 +16°C° 0 mm 1 mps 766 mmHg 82%
    22:00 +16°C° 0 mm 1 mps 766 mmHg 81%
    23:00 +15°C° 0 mm 1 mps 766 mmHg 80%

    26 June, Tuesday

    Time Temperature Precipitation Wind Pressure Humidity
    00:00 +14°C° 0 mm 1 mps 766 mmHg 80%
    01:00 +14°C° 0 mm 1 mps 766 mmHg 79%
    02:00 +13°C° 0 mm 1 mps 765 mmHg 78%
    03:00 +13°C° 0 mm 1 mps 765 mmHg 77%
    04:00 +14°C° 0 mm 1 mps 765 mmHg 77%
    05:00 +15°C° 0 mm 1 mps 765 mmHg 77%
    06:00 +15°C° 0 mm 1 mps 765 mmHg 77%
    07:00 +18°C° 0 mm 1 mps 765 mmHg 72%
    08:00 +19°C° 0 mm 1 mps 765 mmHg 67%
    09:00 +21°C° 0 mm 1 mps 765 mmHg 62%
    10:00 +21°C° 0 mm 2 mps 765 mmHg 61%
    11:00 +21°C° 0 mm 2 mps 765 mmHg 61%
    12:00 +23°C° 0 mm 2 mps 765 mmHg 60%
    13:00 +24°C° 0 mm 2 mps 765 mmHg 62%
    14:00 +24°C° 0 mm 2 mps 765 mmHg 64%
    15:00 +24°C° 0 mm 2 mps 765 mmHg 65%
    16:00 +24°C° 0 mm 2 mps 764 mmHg 69%
    17:00 +24°C° 0 mm 2 mps 764 mmHg 72%
    18:00 +23°C° 0 mm 2 mps 764 mmHg 76%
    19:00 +21°C° 0 mm 2 mps 764 mmHg 81%
    20:00 +19°C° 0 mm 2 mps 765 mmHg 85%
    21:00 +18°C° 0 mm 2 mps 765 mmHg 90%
    22:00 +17°C° 0 mm 2 mps 765 mmHg 90%
    23:00 +17°C° 0 mm 2 mps 765 mmHg 91%

    27 June, Wednesday

    Time Temperature Precipitation Wind Pressure Humidity
    00:00 +16°C° 0 mm 2 mps 765 mmHg 91%
    01:00 +16°C° 0 mm 3 mps 765 mmHg 92%
    02:00 +16°C° 0 mm 3 mps 765 mmHg 93%
    03:00 +14°C° 0 mm 3 mps 765 mmHg 93%
    04:00 +16°C° 0 mm 3 mps 765 mmHg 91%
    05:00 +16°C° 0 mm 3 mps 765 mmHg 89%
    06:00 +16°C° 0 mm 3 mps 765 mmHg 87%
    07:00 +17°C° 0 mm 3 mps 765 mmHg 81%
    08:00 +18°C° 0 mm 4 mps 765 mmHg 75%
    09:00 +19°C° 0 mm 4 mps 765 mmHg 69%
    10:00 +20°C° 0 mm 4 mps 765 mmHg 65%
    11:00 +20°C° 0 mm 4 mps 765 mmHg 62%
    12:00 +21°C° 0 mm 4 mps 765 mmHg 59%
    13:00 +21°C° 0 mm 4 mps 765 mmHg 58%
    14:00 +21°C° 0 mm 4 mps 764 mmHg 57%
    15:00 +21°C° 0 mm 4 mps 764 mmHg 56%
    16:00 +21°C° 0 mm 4 mps 764 mmHg 60%
    17:00 +21°C° 0 mm 3 mps 764 mmHg 63%
    18:00 +21°C° 0 mm 3 mps 764 mmHg 67%
    19:00 +20°C° 0 mm 3 mps 764 mmHg 71%
    20:00 +18°C° 0 mm 3 mps 765 mmHg 74%
    21:00 +17°C° 0 mm 4 mps 765 mmHg 78%
    22:00 +15°C° 0 mm 4 mps 765 mmHg 80%
    23:00 +15°C° 0 mm 4 mps 765 mmHg 81%
    Show more